Regional Weather Roundup
Issued by NWS State College, PA

Home | Current Version | Previous Version | Text Only | Print | Product List | Glossary On
Versions: 1 2 3 4 5 6 7 8 9 10 11 12 13 14 15 16 17 18 19 20 21 22 23 24 25 26 27 28 29 30 31 32 33 34 35 36 37 38 39 40 41 42 43 44 45 46 47 48 49 50
000
ASUS41 KCTP 050610
RWRCTP

REGIONAL WEATHER ROUNDUP
NATIONAL WEATHER SERVICE STATE COLLEGE PA
200 AM EDT THU MAY 05 2016

Note: "fair" indicates few or no clouds below 12,000 feet with no
significant weather and/or obstructions to visibility.

* = STATION THAT DOES NOT REPORT PRECIPITATION /E.G. RAIN...SNOW...ETC/
    THUNDER OR FOG.

PAZ002>004-007>009-013>016-020>023-029>032-050700-
WESTERN PENNSYLVANIA

CITY           SKY/WX    TMP DP  RH WIND       PRES   REMARKS
ERIE           PTCLDY    47  43  86 NE5       29.67S
MEADVILLE      LGT RAIN  47  45  93 SW5       29.67F
FRANKLIN*      CLOUDY    48  45  87 SW6       29.69F
NEW CASTLE     CLOUDY    50  46  86 CALM      29.69S
BEAVER COUNTY  NOT AVBL
BUTLER*        CLOUDY    48  43  81 CALM      29.70S
PITTSBURGH INT CLOUDY    50  46  86 CALM      29.67S
PITTSBURGH     PTCLDY    48  44  86 W3        29.67F
INDIANA*       CLOUDY    50  50 100 CALM      29.71S
LATROBE        PTCLDY    48  48 100 CALM      29.69S
WASHINGTON CO* CLOUDY    46  45  93 CALM      29.68S VSB 3/4
$$

PAZ004>006-010>012-017>019-024>028-033>037-041-042-045-046-049>053-050700-
CENTRAL PENNSYLVANIA

CITY           SKY/WX    TMP DP  RH WIND       PRES   REMARKS
BRADFORD       MOCLDY    44  40  85 CALM      29.69F
DUBOIS         CLOUDY    49  46  90 N5        29.67F
CLEARFIELD     CLOUDY    50  47  89 NE6       29.69S
JOHNSTOWN      LGT RAIN  47  42  83 NE3       29.66F
ALTOONA        CLOUDY    51  47  86 E5        29.68S
STATE COLLEGE  CLOUDY    50  48  95 CALM      29.69F FOG
WILLIAMSPORT   CLOUDY    51  46  83 E9        29.71S
SELINSGROVE    CLOUDY    51  46  83 CALM      29.72S
FT INDIANTOWN  CLOUDY    48  48 100 NE2       29.72F FOG
CAPITAL CITY   CLOUDY    50  46  86 E7        29.72S
HARRISBURG     CLOUDY    50  46  86 E5        29.72S FOG
YORK           CLOUDY    49  47  93 E7        29.71S FOG
$$

PAZ038>040-043-044-047-048-054-055-060>062-067>071-050700-
EASTERN PENNSYLVANIA

CITY           SKY/WX    TMP DP  RH WIND       PRES   REMARKS
SCRANTON       CLOUDY    47  44  90 VRB5      29.72S
MOUNT POCONO   CLOUDY    39  39 100 E10       29.70F FOG
ALLENTOWN      CLOUDY    49  44  83 NE10      29.72F
QUAKERTOWN*    CLOUDY    48  46  93 E5        29.73S
READING        CLOUDY    50  47  89 N5        29.71F
LANCASTER      CLOUDY    49  47  93 E5        29.72F
COATESVILLE    CLOUDY    48  48 100 NE5G13    29.72S FOG
POTTSTOWN      CLOUDY    48  46  93 NE7       29.73S
BLUE BELL      CLOUDY    46  45  93 E6        29.72R
DOYLESTOWN     CLOUDY    46  44  93 CALM      29.72S
WILLOW GROVE   NOT AVBL
NORTH PHILA    CLOUDY    50  47  89 E9        29.74S FOG
PHILADELPHIA   CLOUDY    50  46  86 E9        29.73S
$$




USA.gov is the U.S. government's official web portal to all federal, state and local government web resources and services.